Tracking 19192 objects as of 22-Jun-2018
HD Live streaming from Space Station
objects crossing your sky now

FENGYUN 1C DEB

Track FENGYUN 1C DEB now!
10-day predictions


NORAD ID: 36236
Int'l Code: 1999-025DVM
Perigee: 857.5 km
Apogee: 1,082.8 km
Inclination: 98.9 °
Period: 104.3 minutes
Semi major axis: 7341 km
RCS: 0.0104 m2 (small)
Launch date: May 10, 1999
Source: People's Republic of China (PRC)
Launch site: Taiyaun Space Center, China (TSC)

Note: This is SATELLITE DEBRIS
aabbcc
Your satellite tracking list
Your tracking list is empty




NASA's NSSDC Master Catalog

Two Line Element Set (TLE):
1 36236U 99025DVM 18166.20283483 +.00000033 +00000-0 +63674-4 0  9993
2 36236 098.8543 318.8704 0153438 139.7449 221.5186 13.80254150219681
Source of the keplerian elements: AFSPC